Starlink 2314

operational
NORAD ID: 47788 Int'l Des: 2021-018 Owner: SPXS Country: US Constellation: starlink
LEOCIRCULARSTARLINK_TYPE

About Starlink 2314

Description loading...

Live Position

Loading 3D Globe...

Upcoming Passes

Altitude History

Altitude vs Time

uPlot chart will show altitude changes over time

Two-Line Element Set

1 47788U 21018B 25347.46134713 .00019016 00000-0 12927-2 0 9996
2 47788 53.0539 253.7138 0001637 72.9283 287.1885 15.06381341263965
Epoch: Dec 13, 2025 • Age: 25 hours

Current Status

Altitude 547.5 km
Velocity 7.59 km/s
Sub-Earth Point 6.80°N, 164.86°E
Launch Date Mar 11, 2021
Age 4.7 years
Type internet

Technical Details

Classification Payload
Mass 260.00 kg
Dry Mass 248.00 kg
Total Mass 260.00 kg
Length 0.20 m
Diameter 2.80 m
Span 9.00 m
Shape Box + pan
Manufacturer SPXS
Bus Type Starlink
Phase Status In Orbit
Owner/State SPXS/US

Large Constellations

Loading constellations...